Location: Unspecified
(0.0000°N, 0.0000°E)
Time: 03:06:53
(UTC+00:00)

STARLINK-1273 - Pass Details

Date: 14 February 2026
Orbit: 434 x 436 km, 53.1° (Epoch: 6 March)

Event Time Altitude Azimuth Distance (km) Brightness Sun altitude
Rises 19:51:40 0° 324° (NW) 2,417 7.2 -23.7°
Reaches altitude 10° 19:53:47 10° 323° (NW) 1,549 6.2 -24.2°
Enters shadow 19:54:55 19° 322° (NW) 1,093 5.4 -24.5°
